Regional Weather Roundup
Issued by NWS

Current Version | Previous Version | Text Only | Print | Product List | Glossary On
Versions: 1 2 3 4 5 6 7 8 9 10 11 12 13 14 15 16 17 18 19 20 21 22 23 24 25 26 27 28 29 30 31 32 33 34 35 36 37 38 39 40 41 42 43 44 45 46 47 48 49 50
000
ASUS45 KREV 190910
RWRNV
NEVADA REGIONAL WEATHER ROUNDUP
NATIONAL WEATHER SERVICE RENO NV
200 AM PDT SUN APR 19 2015

NOTE: "FAIR" INDICATES FEW OR NO CLOUDS BELOW 12,000 FEET WITH NO
SIGNIFICANT WEATHER AND/OR OBSTRUCTIONS TO VISIBILITY.

NVZ001-003-004-191000-
WESTERN NEVADA

CITY           SKY/WX    TMP DP  RH WIND       PRES   REMARKS
RENO           PTCLDY    57  20  23 CALM      30.13R
CARSON CITY    FAIR      50  18  27 NE3       30.15R
MINDEN         FAIR      41  23  48 NE7       30.14
SLIDE MTN        N/A     37  18  44 E26         N/A
PYRAMID LAKE     N/A     59 N/A N/A SW2         N/A
FALLON         PTCLDY    48  16  27 E3        30.09R
LOVELOCK       CLEAR     48  11  22 N12       30.11S
HAWTHORNE      CLEAR     57  23  26 NW12      30.08S
$$

NVZ002-CAZ072-073-191000-
NORTHERN AND CENTRAL SIERRA

CITY           SKY/WX    TMP DP  RH WIND       PRES   REMARKS
S. LAKE TAHOE  PTCLDY    38  25  59 SW5       30.16S
TRUCKEE        CLEAR     32  27  80 CALM      30.17S
SQUAW VLY 8000   N/A     41  21  45 W1          N/A
SUSANVILLE     CLEAR    N/A N/A N/A W3          N/A
BLUE CANYON    CLEAR     57  18  21 NE8G18    30.09F
MAMMOTH LAKES  FAIR      39  16  38 W7        30.19S
BRIDGEPORT     FAIR      30  18  60 CALM      30.18S
$$

NVZ030-031-036-191000-
NORTHERN NEVADA

CITY           SKY/WX    TMP DP  RH WIND       PRES   REMARKS
ELKO           PTCLDY    32  17  54 CALM      30.13F
WINNEMUCCA     CLEAR     37  11  34 W7        30.14S
WENDOVER       CLEAR     48  16  27 CALM      30.05F
$$

NVZ035-037-191000-
CENTRAL NEVADA

CITY           SKY/WX    TMP DP  RH WIND       PRES   REMARKS
ELY            CLEAR     31  10  41 S5        30.14S
EUREKA           N/A     33  15  47 CALM      30.15F
$$

NVZ013-014-191000-
SOUTH CENTRAL NEVADA

CITY           SKY/WX    TMP DP  RH WIND       PRES   REMARKS
TONOPAH        CLEAR     49  12  22 N17       30.09S
$$

NVZ017-020-022-191000-
SOUTHERN NEVADA

CITY           SKY/WX    TMP DP  RH WIND       PRES   REMARKS
LAS VEGAS      PTCLDY    70  14  11 S6        29.83F
N. LAS VEGAS   CLEAR     66  15  14 CALM      29.87R
NELLIS AFB     CLEAR     65  16  15 CALM      29.85S
HENDERSON      CLEAR     63  14  15 S10       29.90S
MERCURY        CLEAR     53  12  19 E3        29.93S
$$


USA.gov is the U.S. government's official web portal to all federal, state and local government web resources and services.